SB KEPS @ AMSAT $ORB09253.N 2Line Orbital Elements 09253.AMSAT
HR AMSAT ORBITAL ELEMENTS FOR AMATEUR SATELLITES IN NASA FORMAT FROM WA5QGD FORT WORTH,TX September 10, 2009 Send Subscribe/unsubscribe to KEPS at http://www.amsat.org/mailman/listinfo/keps BID: ORB09253.N
DECODE 2-LINE ELSETS WITH THE FOLLOWING KEY: 1 AAAAAU 00 0 0 BBBBB.BBBBBBBB .CCCCCCCC 00000-0 00000-0 0 DDDZ 2 AAAAA EEE.EEEE FFF.FFFF GGGGGGG HHH.HHHH III.IIII JJ.JJJJJJJJKKKKKZ KEY: A-CATALOGNUM B-EPOCHTIME C-DECAY D-ELSETNUM E-INCLINATION F-RAAN G-ECCENTRICITY H-ARGPERIGEE I-MNANOM J-MNMOTION K-ORBITNUM Z-CHECKSUM
TO ALL RADIO AMATEURS BT
AO-07 1 07530U 74089B 09251.48645756 -.00000027 00000-0 10000-3 0 5759 2 07530 101.4231 273.0962 0012045 104.5946 255.6469 12.53576440593156 FO-29 1 24278U 96046B 09252.75275727 -.00000028 00000-0 48815-5 0 01420 2 24278 098.5392 115.3747 0351157 131.1421 232.0585 13.52945091645182 SO-33 1 25509U 98061B 09252.56038837 .00000236 00000-0 35868-4 0 5387 2 25509 031.4344 295.3926 0354376 356.1155 003.6750 14.28264019567907 RS-22 1 27939U 03042A 09252.64559470 .00000050 00000-0 18434-4 0 08883 2 27939 097.9292 124.3832 0012616 224.3296 135.6900 14.63339188317929 VO-52 1 28650U 05017B 09253.88735007 .00000223 00000-0 34664-4 0 3168 2 28650 097.7337 312.5994 0028300 109.1414 251.2834 14.81618212235330 AO-16 1 20439U 90005D 09252.89980339 -.00000004 00000-0 13991-4 0 07001 2 20439 098.2886 217.4883 0010094 281.5355 078.4700 14.31832546025276 LO-19 1 20442U 90005G 09252.87305814 .00000020 00000-0 22652-4 0 06147 2 20442 098.2524 224.3974 0010909 275.7197 084.2739 14.32067370025432 AO-27 1 22825U 93061C 09251.03260794 -.00000002 00000-0 15903-4 0 3355 2 22825 098.4448 201.8770 0008785 026.4323 333.7309 14.29272543831741 IO-26 1 22826U 93061D 09251.42816736 -.00000006 00000-0 14210-4 0 645 2 22826 098.4369 202.9737 0009443 020.1599 339.9954 14.29525251831906 GO-32 1 25397U 98043D 09252.72134600 .00000044 00000-0 37318-4 0 09872 2 25397 098.3246 270.5276 0001609 043.3204 316.8097 14.23163554580158 NO-44 1 26931U 01043C 09253.84832389 -.00000027 00000-0 21920-4 0 2613 2 26931 067.0507 203.6539 0006858 275.5569 084.4742 14.29566115414820 SO-50 1 27607U 02058C 09252.80293657 .00000008 00000-0 23241-4 0 09809 2 27607 064.5580 128.1015 0057624 184.6962 175.3591 14.71457230361128 CO-55 1 27844U 03031E 09251.02922352 .00000039 00000-0 38282-4 0 6620 2 27844 098.7141 259.0319 0009023 267.0079 093.0057 14.20654530321023 CO-57 1 27848U 03031J 09252.56803234 .00000013 00000-0 26392-4 0 06138 2 27848 098.7172 259.6115 0009001 266.6059 093.4093 14.20454601321201 AO-51 1 28375U 04025K 09253.67033633 .00000001 00000-0 13224-4 0 4820 2 28375 098.0544 258.3006 0082849 225.7289 133.7085 14.40651560273266 CO-56 1 28941U 06005C 09253.80273645 .00114277 77595-5 22656-3 0 4291 2 28941 098.1328 085.1475 0057369 165.9883 194.3037 15.96881241200854 GENESAT1 1 29655U 06058C 09253.67228215 .00010240 00000-0 94912-4 0 8038 2 29655 040.0238 007.0205 0002381 038.0349 322.0636 15.67287107155884 CP3 1 31129U 07012N 09253.61356963 .00000093 00000-0 32085-4 0 1855 2 31129 097.9817 302.5671 0103088 021.1705 339.3712 14.52160567127284 CO-65 1 32785U 08021C 09253.15809303 .00000331 00000-0 48967-4 0 4679 2 32785 097.9382 316.3902 0016048 113.3821 246.9087 14.81516225 74021 KKS-1 1 33493U 09002B 09253.92116088 .00000125 00000-0 23330-4 0 7437 2 33493 098.0640 006.5363 0019540 327.8587 032.1412 14.80724263 34156 SOHLA-1 1 33496U 09002E 09253.91273903 -.00000028 00000-0 34249-5 0 7085 2 33496 098.0438 001.9091 0007218 020.4541 339.6931 14.69445032 33865 NOAA-10 1 16969U 86073A 09252.69493505 -.00000084 00000-0 -16164-4 0 07550 2 16969 098.6876 278.8681 0011786 314.1076 045.9153 14.27393394195560 NOAA-11 1 19531U 88089A 09252.85433658 .00000090 00000-0 69174-4 0 07743 2 19531 098.7830 341.4945 0010983 225.2476 134.7786 14.14903289081494 NOAA-12 1 21263U 91032A 09252.96244436 .00000037 00000-0 34403-4 0 02828 2 21263 098.7747 261.0708 0011337 260.7757 099.2140 14.25592393952476 MET-3/5 1 21655U 91056A 09252.93071952 .00000051 00000-0 10000-3 0 06979 2 21655 082.5554 146.6464 0013633 335.3254 024.7214 13.17020353868784 MET-2/21 1 22782U 93055A 09252.93120676 -.00000020 00000-0 -31333-4 0 05622 2 22782 082.5459 114.7987 0023683 107.6650 252.7095 13.83638210809327 OKEAN-4 1 23317U 94066A 09253.40161630 .00000242 00000-0 26860-4 0 132 2 23317 082.5369 254.9598 0024059 083.9282 276.4648 14.82719197804991 NOAA-14 1 23455U 94089A 09252.67296926 -.00000107 00000-0 -32774-4 0 07528 2 23455 098.9051 330.0353 0008755 315.2835 044.7637 14.13769162757866 NOAA-15 1 25338U 98030A 09252.74596442 .00000007 00000-0 21430-4 0 00756 2 25338 098.5920 240.1299 0010774 165.8976 194.2486 14.24782968588819 RESURS 1 25394U 98043A 09253.59106061 -.00000023 00000-0 76228-5 0 3062 2 25394 098.3348 281.5718 0001668 359.5062 000.6117 14.24188996580553 FENGYUN1 1 25730U 99025A 09252.92134469 .00000215 00000-0 15151-3 0 08924 2 25730 098.7604 220.5600 0022303 339.5931 020.4345 14.07974223532244 OKEAN-0 1 25860U 99039A 09253.79730791 .00000015 00000-0 96198-5 0 7805 2 25860 097.7956 231.6172 0000601 066.5932 293.5336 14.73586790545753 NOAA-16 1 26536U 00055A 09252.93922200 .00000088 00000-0 72666-4 0 05552 2 26536 099.1796 258.6696 0011123 047.7454 312.4672 14.12531265462261 NOAA-17 1 27453U 02032A 09252.73503280 .00000001 00000-0 18601-4 0 05519 2 27453 098.4757 308.8590 0010946 233.6722 126.3429 14.24089264374787 NOAA-18 1 28654U 05018A 09252.69857162 .00000055 00000-0 55107-4 0 00376 2 28654 098.9118 195.3020 0015157 122.2512 238.0134 14.11282853221873 NOAA-19 1 33591U 09005A 09252.69672792 .00000127 00000-0 94555-4 0 02424 2 33591 098.7515 196.2798 0014429 008.3237 351.8170 14.10983453030357 HUBBLE 1 20580U 90037B 09250.43949751 .00000305 00000-0 10613-4 0 04439 2 20580 028.4717 285.4688 0003283 079.4269 280.6769 15.00827500862226 ISS 1 25544U 98067A 09252.95216194 .00007455 00000-0 55425-4 0 05784 2 25544 051.6388 231.6952 0009147 073.4975 037.1917 15.74020900619302 CO-58 1 28895U 05043F 09253.19575857 .00000188 00000-0 48811-4 0 3919 2 28895 098.0456 141.3769 0019019 082.0679 278.2692 14.59793790206131 FALCON 1 30776U 07006E 09252.51287866 .00000228 00000-0 19535-4 0 06656 2 30776 035.4352 307.7728 0001908 303.9452 056.1083 15.03297769137794 MAST 1 31126U 07012K 09252.70771229 .00000083 00000-0 29312-4 0 6816 2 31126 097.9803 303.6067 0095180 018.1387 342.3174 14.53515591127314 CAPE1 1 31130U 07012P 09253.58790488 .00000182 00000-0 52670-4 0 6910 2 31130 097.9809 302.4404 0103381 021.5204 339.0295 14.52085147127085 COMPASS 1 32787U 08021E 09253.66778606 .00000075 00000-0 16272-4 0 4598 2 32787 097.9351 316.7364 0017042 113.7974 246.5030 14.81650849 74107 AAUSAT2 1 32788U 08021F 09253.83110579 .00000306 00000-0 45509-4 0 4555 2 32788 097.9351 316.9711 0016706 112.5628 247.7316 14.81777365 74131 DO-64 1 32789U 08021G 09252.83998116 .00000266 00000-0 40453-4 0 4699 2 32789 097.9393 316.2070 0016894 115.3819 244.9132 14.81784742 73984 CO-66 1 32791U 08021J 09251.69438811 .00000346 00000-0 50821-4 0 04561 2 32791 097.9371 314.8144 0017126 116.8146 243.4815 14.81475191073771 RS-30 1 32953U 08025A 09253.34775993 .00000010 00000-0 00000 0 0 4011 2 32953 082.5015 203.6545 0019735 357.5593 002.5388 12.43003026 58978 TACSAT-3 1 35001U 09028A 09253.67270437 .00001381 00000-0 40524-4 0 930 2 35001 040.4553 089.3388 0023200 075.2496 285.0900 15.39125688 17528 PHARMSAT 1 35002U 09028B 09253.94039153 .00001390 00000-0 39742-4 0 917 2 35002 040.4679 087.0735 0025832 081.7510 278.6232 15.39883379 17569 HAWKSAT1 1 35003U 09028C 09253.64222498 .00002799 00000-0 72279-4 0 951 2 35003 040.4602 088.2368 0025716 083.3049 277.0667 15.40576210 17534 CP6 1 35004U 09028D 09253.64140784 .00003286 00000-0 83660-4 0 890 2 35004 040.4616 088.2352 0025812 083.0532 277.3191 15.40628992 17523 AEROCUB3 1 35005U 09028E 09253.65503492 .00003213 00000-0 82517-4 0 891 2 35005 040.4740 088.4766 0025317 081.5510 278.8156 15.40427719 17523 DRAGNSAT 1 35690U 09038B 09253.99643289 .00017891 00000-0 88753-4 0 400 2 35690 051.6422 223.8550 0002346 213.9695 146.1148 15.82088376 6728 POLLUX 1 35693U 09038E 09253.37891481 .00017017 00000-0 87041-4 0 414 2 35693 051.6396 227.2380 0003534 144.2393 215.8863 15.81465030 6599 CASTOR 1 35694U 09038F 09253.83329502 .00008665 00000-0 47705-4 0 407 2 35694 051.6404 225.0289 0003862 158.6084 201.5076 15.80695457 6667 /EX
participants (1)
-
Ray Hoad